{"data":{"norad_id":66510,"epoch":"2026-05-24T20:33:23.076576Z","epoch_age_seconds":81462,"freshness":"FRESH","line1":"1 66510U 25263AB  26144.85651709  .00019727  00000+0  72401-3 0  9996","line2":"2 66510  42.9998 280.8916 0001873 264.1539  95.9099 15.27601100 30540","mean_motion":15.276011,"eccentricity":0.0001873,"inclination_deg":42.9998,"raan_deg":280.8916,"arg_perigee_deg":264.1539,"mean_anomaly_deg":95.9099,"bstar":0.00072401,"rev_number":3054,"period_min":94.26544665358,"perigee_km":481.70082745408,"apogee_km":484.27100409833,"semimajor_km":6861.1229157762,"source":"CELESTRAK","updated_at":"2026-05-25T13:38:21.247831Z"}}